UHMAUHMM

Guest
Details From UHMA - UGOLNY
To UHMM - Magadan Sokol
Flight Number -
Tags decoded
Created
Modified
Stats Distance 800 nm / 1,481 km
Max Altitude 0 ft / 0 m
Waypoints 2
Social Downloads 0
Likes 0
Share VATSIM

Download

Looking for another format? Having issues loading an existing format? Contact us
Advertisement - Login to hide

Notes

Requested: UHMA UHMM

Route

UHMA UHMM

ID Type Via Altitude Latitude Longitude Leg Dist Tot Dist Heading (true) Name
O UHMA APT - 0 ft / 0 m 64.73495˚ 177.74148˚ - 0 nm - UGOLNY
O UHMM APT - 0 ft / 0 m 59.91099˚ 150.72044˚ 799 nm 799 nm 261° / 237° Magadan Sokol

Altitude Profile

Advertisement - Login to hide

Weather


0- 5 10 15 20 25 30 35+ Temperature / ° C

Clouds and Precipitation
Forecast for 2018-05-26 06:00 UTC. Updated 5 hours ago

Ground ~20,000 ft ~40,000 ft Winds

UHMA

Details ICAO UHMA (DYR)
Name UGOLNY
Region Russia
Timezone Asia/Anadyr (UTC+12.0)
Stats Elevation 194 ft / 59 m (AMSL)
Location 64.734950° 177.741483°
Runways 1
Magnetic Variation 1.339° E

METAR

UHMA 261000Z 35002MPS CAVOK M02/M02 Q1014 RMK END R01/03002MPS QFE757/1009

Decode

TAF

TAF UHMA 260750Z 2609/2709 31003MPS 9999 SCT030 TEMPO 2612/2618 2000 BR SCT005 BKN023 BECMG 2618/2620 11005MPS TEMPO 2618/2709 15007MPS SCT006 BKN020

Decode

Departure Runways

ID Width Length Bearing (true) Bearing (mag) Surface Threshold Offset Overrun Length
01 197 ft / 60 m 11,439 ft / 3,487 m 14.65° 13.31° Concrete 0 ft / 0 m 240 ft / 73 m
19 197 ft / 60 m 11,439 ft / 3,487 m 194.66° 193.32° Concrete 0 ft / 0 m 240 ft / 73 m

UHMM

Details ICAO UHMM (GDX)
Name Magadan Sokol
Region Russia
Timezone Asia/Magadan (UTC+11.0)
Stats Elevation 574 ft / 175 m (AMSL)
Location 59.910989° 150.720439°
Runways 1
Magnetic Variation 10.996° W

METAR

UHMM 260930Z 13004MPS 9999 NSC 08/02 Q1008 R10/70D NOSIG RMK QFE741

Decode

TAF

TAF UHMM 260740Z 2609/2715 12003MPS 9999 SCT030 OVC070 TEMPO 2612/2623 3100 BR FEW005 OVC011 TEMPO 2702/2710 24004MPS -SHRA BKN025CB OVC070 BECMG 2711/2713 3100 -SHRA BR FEW006 OVC011CB

Decode

Destination Runways

ID Width Length Bearing (true) Bearing (mag) Surface Threshold Offset Overrun Length
10 194 ft / 59 m 11,299 ft / 3,444 m 93.20° 104.20° Concrete 0 ft / 0 m 1,975 ft / 602 m
28 194 ft / 59 m 11,299 ft / 3,444 m 273.26° 284.26° Concrete 0 ft / 0 m 220 ft / 67 m

Approach Navaids

Runway Type Ident Frequency Range Bearing (true) Bearing (mag) Slope Elevation
10 Glidescope IFK 110.30 MHz 50 nm / 93 km 104.00° 115.00° 2.80° 574 ft / 175 m (AMSL)

Popular Alternatives